カタログに戻る

STARLINK-36135

運用中通信VLEO
NORAD 66986·PAYLOAD·🇺🇸 United States

打ち上げ Dec 8, 2025 から Cape Canaveral Space Force Station

Loading…

次のパス (今後24時間)

TLE

最新Source: CelesTrak SupGP

元期: Sep 15, 2026, 03:08 UTC

1 66986C 25288AD  26258.13104167 -.00013448  00000+0 -48694-3 0  2589
2 66986  43.0042  33.6252 0001464 268.9360 302.0116 15.27595823    11

AllMySatでSTARLINK-36135をリアルタイム追跡

Download on the App Store